Tracking 18980 objects as of 22-Feb-2018
HD Live streaming from Space Station
objects crossing your sky now

FENGYUN 1C DEB

Track FENGYUN 1C DEB now!
10-day predictions


NORAD ID: 30206
Int'l Code: 1999-025VP
Perigee: 644.7 km
Apogee: 875.5 km
Inclination: 98.4 °
Period: 99.9 minutes
Semi major axis: 7131 km
RCS: 0.048 m2 (small)
Launch date: May 10, 1999
Source: People's Republic of China (PRC)
Launch site: Taiyaun Space Center, China (TSC)

Note: This is SATELLITE DEBRIS
aabbcc
Your satellite tracking list
Your tracking list is empty




NASA's NSSDC Master Catalog

Two Line Element Set (TLE):
1 30206U 99025VP  18052.87123094 +.00000158 +00000-0 +54352-4 0  9993
2 30206 098.4153 089.9947 0161875 038.2725 322.9824 14.41677645582723
Source of the keplerian elements: AFSPC